"Sample Date","Sample Time","Sample Value","Units","Flow Rate","Laser Status","Micron Size 0","Counts/Channel 0","Micron Size 1","Counts/Channel 1","Micron Size 2","Counts/Channel 2","Micron Size 3","Counts/Channel 3","Micron Size 4","Counts/Channel 4","Micron Size 5","Counts/Channel 5","Micron Size 6","Counts/Channel 6","Micron Size 7","Counts/Channel 7","Micron Size 8","Counts/Channel 8","Micron Size 9","Counts/Channel 9","Micron Size 10","Counts/Channel 10","Micron Size 11","Counts/Channel 11","Micron Size 12","Counts/Channel 12","Micron Size 13","Counts/Channel 13","Micron Size 14","Counts/Channel 14","Micron Size 15","Counts/Channel 15","Micron Size 16","Counts/Channel 16","Micron Size 17","Counts/Channel 17","Micron Size 18","Counts/Channel 18","Micron Size 19","Counts/Channel 19","Micron Size 20","Counts/Channel 20","Micron Size 21","Counts/Channel 21","Micron Size 22","Counts/Channel 22","Micron Size 23","Counts/Channel 23","Micron Size 24","Counts/Channel 24","Micron Size 25","Counts/Channel 25","Micron Size 26","Counts/Channel 26","Micron Size 27","Counts/Channel 27","Micron Size 28","Counts/Channel 28","Micron Size 29","Counts/Channel 29","Micron Size 30","Counts/Channel 30","Micron Size 31","Counts/Channel 31"
"03/01/08","06:00:05",168327.000,"cc",28297.850,1,0.100,143982.000,0.200,20539.000,0.300,2193.000,0.500,1175.000,1.000,438.000,5.000,0
"03/01/08","06:00:11",187376.000,"cc",28317.676,1,0.100,159453.000,0.200,23683.000,0.300,2377.000,0.500,1365.000,1.000,498.000,5.000,0
"03/01/08","06:00:17",175224.000,"cc",28316.697,1,0.100,148048.000,0.200,22303.000,0.300,2660.000,0.500,1582.000,1.000,631.000,5.000,0
"03/01/08","06:00:23",125256.000,"cc",28316.963,1,0.100,104962.000,0.200,15290.000,0.300,2422.000,0.500,1837.000,1.000,745.000,5.000,0
"03/01/08","06:00:29",164223.000,"cc",28320.316,1,0.100,137196.000,0.200,21055.000,0.300,3122.000,0.500,2059.000,1.000,791.000,5.000,0
"03/01/08","06:00:35",110786.000,"cc",28325.201,1,0.100,92115.000,0.200,13574.000,0.300,2490.000,0.500,1873.000,1.000,734.000,5.000,0
"03/01/08","06:00:41",78401.000,"cc",28312.592,1,0.100,64728.000,0.200,9144.000,0.300,2124.000,0.500,1723.000,1.000,682.000,5.000,0
"03/01/08","06:00:47",90523.000,"cc",28332.139,1,0.100,74395.000,0.200,10649.000,0.300,2621.000,0.500,2045.000,1.000,813.000,5.000,0
"03/01/08","06:00:53",111395.000,"cc",28341.375,1,0.100,92855.000,0.200,13512.000,0.300,2498.000,0.500,1821.000,1.000,709.000,5.000,0
"03/01/08","06:00:59",109324.000,"cc",28291.139,1,0.100,91115.000,0.200,13184.000,0.300,2508.000,0.500,1805.000,1.000,712.000,5.000,0
"03/01/08","06:01:05",97807.000,"cc",28338.690,1,0.100,81201.000,0.200,11543.000,0.300,2469.000,0.500,1807.000,1.000,787.000,5.000,0
"03/01/08","06:01:11",104135.000,"cc",28271.313,1,0.100,86854.000,0.200,12326.000,0.300,2466.000,0.500,1800.000,1.000,689.000,5.000,0
"03/01/08","06:01:17",89637.000,"cc",28334.869,1,0.100,75338.000,0.200,10074.000,0.300,2101.000,0.500,1514.000,1.000,610.000,5.000,0
"03/01/08","06:01:23",115451.000,"cc",28294.107,1,0.100,96871.000,0.200,13601.000,0.300,2457.000,0.500,1815.000,1.000,707.000,5.000,0
"03/01/08","06:01:29",117070.000,"cc",28326.871,1,0.100,98361.000,0.200,14002.000,0.300,2370.000,0.500,1671.000,1.000,666.000,5.000,0
"03/01/08","06:01:35",106242.000,"cc",28312.078,1,0.100,87311.000,0.200,13025.000,0.300,2912.000,0.500,2181.000,1.000,813.000,5.000,0
"03/01/08","06:01:41",102761.000,"cc",28311.693,1,0.100,84486.000,0.200,12403.000,0.300,2857.000,0.500,2145.000,1.000,870.000,5.000,0
"03/01/08","06:01:47",82847.000,"cc",28341.406,1,0.100,68826.000,0.200,9590.000,0.300,2201.000,0.500,1602.000,1.000,628.000,5.000,0
"03/01/08","06:01:53",66819.000,"cc",28370.283,1,0.100,55919.000,0.200,7479.000,0.300,1678.000,0.500,1259.000,1.000,484.000,5.000,0
"03/01/08","06:01:59",72292.000,"cc",28230.135,1,0.100,60925.000,0.200,7878.000,0.300,1735.000,0.500,1242.000,1.000,512.000,5.000,0
"03/01/08","06:02:05",49373.000,"cc",28329.115,1,0.100,41335.000,0.200,5244.000,0.300,1395.000,0.500,1017.000,1.000,381.000,5.000,1.000
"03/01/08","06:02:11",53655.000,"cc",28377.789,1,0.100,44075.000,0.200,6176.000,0.300,1703.000,0.500,1231.000,1.000,470.000,5.000,0
"03/01/08","06:02:17",54382.000,"cc",28305.092,1,0.100,44282.000,0.200,6345.000,0.300,1888.000,0.500,1360.000,1.000,507.000,5.000,0
"03/01/08","06:02:23",50747.000,"cc",28293.959,1,0.100,42003.000,0.200,5585.000,0.300,1495.000,0.500,1207.000,1.000,457.000,5.000,0
"03/01/08","06:02:29",41289.000,"cc",28292.906,1,0.100,33787.000,0.200,4453.000,0.300,1404.000,0.500,1194.000,1.000,451.000,5.000,0
"03/01/08","06:02:35",38883.000,"cc",28324.736,1,0.100,31483.000,0.200,3989.000,0.300,1551.000,0.500,1327.000,1.000,533.000,5.000,0
"03/01/08","06:02:41",41770.000,"cc",28219.518,1,0.100,33839.000,0.200,4482.000,0.300,1539.000,0.500,1389.000,1.000,521.000,5.000,0
"03/01/08","06:02:47",58672.000,"cc",28293.406,1,0.100,47235.000,0.200,6921.000,0.300,2120.000,0.500,1736.000,1.000,660.000,5.000,0
"03/01/08","06:02:53",56358.000,"cc",28375.781,1,0.100,45170.000,0.200,6478.000,0.300,2247.000,0.500,1755.000,1.000,708.000,5.000,0
"03/01/08","06:02:59",61228.000,"cc",28334.248,1,0.100,50206.000,0.200,6602.000,0.300,2108.000,0.500,1681.000,1.000,630.000,5.000,1.000
"03/01/08","06:03:05",48665.000,"cc",28328.926,1,0.100,39562.000,0.200,5177.000,0.300,1768.000,0.500,1518.000,1.000,640.000,5.000,0
"03/01/08","06:03:11",37683.000,"cc",28333.857,1,0.100,31129.000,0.200,3652.000,0.300,1310.000,0.500,1122.000,1.000,470.000,5.000,0
"03/01/08","06:03:17",36140.000,"cc",28322.113,1,0.100,29947.000,0.200,3483.000,0.300,1172.000,0.500,1107.000,1.000,431.000,5.000,0
"03/01/08","06:03:23",31102.000,"cc",28270.701,1,0.100,24235.000,0.200,3182.000,0.300,1571.000,0.500,1472.000,1.000,642.000,5.000,0
"03/01/08","06:03:29",25736.000,"cc",28355.088,1,0.100,21229.000,0.200,2437.000,0.300,967.000,0.500,801.000,1.000,302.000,5.000,0
"03/01/08","06:03:35",25397.000,"cc",28340.223,1,0.100,21354.000,0.200,2232.000,0.300,800.000,0.500,737.000,1.000,273.000,5.000,1.000
"03/01/08","06:03:41",27909.000,"cc",28290.281,1,0.100,23331.000,0.200,2634.000,0.300,877.000,0.500,773.000,1.000,294.000,5.000,0
"03/01/08","06:03:47",30100.000,"cc",28290.682,1,0.100,25445.000,0.200,2585.000,0.300,888.000,0.500,867.000,1.000,315.000,5.000,0
"03/01/08","06:03:53",30329.000,"cc",28307.152,1,0.100,24946.000,0.200,2763.000,0.300,1181.000,0.500,1039.000,1.000,400.000,5.000,0
"03/01/08","06:03:59",25573.000,"cc",28320.537,1,0.100,21112.000,0.200,2260.000,0.300,962.000,0.500,873.000,1.000,366.000,5.000,0
"03/01/08","06:04:05",24249.000,"cc",28274.350,1,0.100,20984.000,0.200,1841.000,0.300,617.000,0.500,579.000,1.000,228.000,5.000,0
"03/01/08","06:04:11",26651.000,"cc",28428.648,1,0.100,22482.000,0.200,2263.000,0.300,817.000,0.500,744.000,1.000,345.000,5.000,0
"03/01/08","06:04:17",24890.000,"cc",28259.824,1,0.100,21039.000,0.200,1998.000,0.300,813.000,0.500,728.000,1.000,312.000,5.000,0
"03/01/08","06:04:23",33632.000,"cc",28324.002,1,0.100,28387.000,0.200,3047.000,0.300,1040.000,0.500,847.000,1.000,311.000,5.000,0
"03/01/08","06:04:29",45867.000,"cc",28340.156,1,0.100,38275.000,0.200,4595.000,0.300,1413.000,0.500,1144.000,1.000,440.000,5.000,0
"03/01/08","06:04:35",50648.000,"cc",28337.031,1,0.100,42128.000,0.200,5116.000,0.300,1631.000,0.500,1295.000,1.000,478.000,5.000,0
"03/01/08","06:04:41",45693.000,"cc",28331.227,1,0.100,36892.000,0.200,4784.000,0.300,1804.000,0.500,1595.000,1.000,618.000,5.000,0
"03/01/08","06:04:47",45715.000,"cc",28253.299,1,0.100,36123.000,0.200,4880.000,0.300,2123.000,0.500,1883.000,1.000,706.000,5.000,0
"03/01/08","06:04:53",45115.000,"cc",28290.365,1,0.100,33650.000,0.200,5346.000,0.300,2722.000,0.500,2404.000,1.000,993.000,5.000,0
"03/01/08","06:04:59",48100.000,"cc",28334.566,1,0.100,31246.000,0.200,6992.000,0.300,4475.000,0.500,3838.000,1.000,1549.000,5.000,0
"03/01/08","06:05:05",53272.000,"cc",28343.443,1,0.100,37629.000,0.200,7003.000,0.300,3828.000,0.500,3438.000,1.000,1374.000,5.000,0
"03/01/08","06:05:11",53303.000,"cc",28293.975,1,0.100,36167.000,0.200,7442.000,0.300,4331.000,0.500,3843.000,1.000,1520.000,5.000,0
"03/01/08","06:05:17",54715.000,"cc",28335.016,1,0.100,40900.000,0.200,6572.000,0.300,3241.000,0.500,2857.000,1.000,1145.000,5.000,0
"03/01/08","06:05:23",49355.000,"cc",28242.617,1,0.100,38237.000,0.200,5445.000,0.300,2595.000,0.500,2162.000,1.000,916.000,5.000,0
"03/01/08","06:05:29",48054.000,"cc",28296.504,1,0.100,35888.000,0.200,5773.000,0.300,2860.000,0.500,2511.000,1.000,1022.000,5.000,0
"03/01/08","06:05:35",42938.000,"cc",28321.572,1,0.100,32552.000,0.200,5010.000,0.300,2453.000,0.500,2109.000,1.000,813.000,5.000,1.000
"03/01/08","06:05:41",41612.000,"cc",28399.623,1,0.100,33402.000,0.200,4300.000,0.300,1719.000,0.500,1568.000,1.000,623.000,5.000,0
"03/01/08","06:05:47",40212.000,"cc",28269.148,1,0.100,31790.000,0.200,4418.000,0.300,1804.000,0.500,1571.000,1.000,629.000,5.000,0
"03/01/08","06:05:53",34834.000,"cc",28352.906,1,0.100,26581.000,0.200,3941.000,0.300,1894.000,0.500,1745.000,1.000,673.000,5.000,0
"03/01/08","06:05:59",39698.000,"cc",28293.867,1,0.100,29681.000,0.200,4723.000,0.300,2415.000,0.500,2064.000,1.000,815.000,5.000,0
"03/01/08","06:06:05",45708.000,"cc",28295.613,1,0.100,36619.000,0.200,4963.000,0.300,1841.000,0.500,1624.000,1.000,661.000,5.000,0
"03/01/08","06:06:11",45386.000,"cc",28320.565,1,0.100,36321.000,0.200,5046.000,0.300,1853.000,0.500,1561.000,1.000,605.000,5.000,0
"03/01/08","06:06:17",53475.000,"cc",28322.504,1,0.100,43890.000,0.200,5542.000,0.300,1917.000,0.500,1533.000,1.000,593.000,5.000,0
"03/01/08","06:06:23",50004.000,"cc",28297.574,1,0.100,41403.000,0.200,4939.000,0.300,1740.000,0.500,1361.000,1.000,561.000,5.000,0
"03/01/08","06:06:29",45535.000,"cc",28306.240,1,0.100,37833.000,0.200,4301.000,0.300,1522.000,0.500,1333.000,1.000,546.000,5.000,0
"03/01/08","06:06:35",67407.000,"cc",28293.057,1,0.100,56638.000,0.200,6857.000,0.300,1915.000,0.500,1423.000,1.000,574.000,5.000,0
"03/01/08","06:06:41",162726.000,"cc",28376.561,1,0.100,138725.000,0.200,19621.000,0.300,2386.000,0.500,1457.000,1.000,537.000,5.000,0
"03/01/08","06:06:47",204260.000,"cc",28312.381,1,0.100,174102.000,0.200,25526.000,0.300,2626.000,0.500,1467.000,1.000,539.000,5.000,0
"03/01/08","06:06:53",155166.000,"cc",28287.650,1,0.100,133119.000,0.200,18507.000,0.300,1994.000,0.500,1128.000,1.000,418.000,5.000,0
"03/01/08","06:06:59",130334.000,"cc",28366.004,1,0.100,111674.000,0.200,15207.000,0.300,1821.000,0.500,1230.000,1.000,402.000,5.000,0
"03/01/08","06:07:05",135876.000,"cc",28326.537,1,0.100,116562.000,0.200,15497.000,0.300,2026.000,0.500,1311.000,1.000,480.000,5.000,0
"03/01/08","06:07:11",132137.000,"cc",28330.018,1,0.100,113809.000,0.200,14558.000,0.300,2117.000,0.500,1179.000,1.000,474.000,5.000,0
"03/01/08","06:07:17",128316.000,"cc",28328.799,1,0.100,110829.000,0.200,13867.000,0.300,1895.000,0.500,1273.000,1.000,452.000,5.000,0
"03/01/08","06:07:23",82375.000,"cc",28289.607,1,0.100,71529.000,0.200,8165.000,0.300,1301.000,0.500,992.000,1.000,388.000,5.000,0
"03/01/08","06:07:29",48730.000,"cc",28286.922,1,0.100,42790.000,0.200,4211.000,0.300,769.000,0.500,664.000,1.000,295.000,5.000,1.000
"03/01/08","06:07:35",43932.000,"cc",28280.420,1,0.100,39058.000,0.200,3470.000,0.300,640.000,0.500,565.000,1.000,199.000,5.000,0
"03/01/08","06:07:41",40594.000,"cc",28344.547,1,0.100,34884.000,0.200,3508.000,0.300,956.000,0.500,893.000,1.000,353.000,5.000,0
"03/01/08","06:07:47",40187.000,"cc",28326.938,1,0.100,33692.000,0.200,3736.000,0.300,1215.000,0.500,1098.000,1.000,446.000,5.000,0
"03/01/08","06:07:53",53133.000,"cc",28326.834,1,0.100,46150.000,0.200,4735.000,0.300,1056.000,0.500,837.000,1.000,355.000,5.000,0
"03/01/08","06:07:59",55821.000,"cc",28311.156,1,0.100,47688.000,0.200,5143.000,0.300,1391.000,0.500,1191.000,1.000,408.000,5.000,0
"03/01/08","06:08:05",52946.000,"cc",28377.856,1,0.100,44041.000,0.200,5336.000,0.300,1599.000,0.500,1394.000,1.000,576.000,5.000,0
"03/01/08","06:08:11",54225.000,"cc",28269.018,1,0.100,44889.000,0.200,5542.000,0.300,1727.000,0.500,1487.000,1.000,580.000,5.000,0
"03/01/08","06:08:17",62926.000,"cc",28365.623,1,0.100,51822.000,0.200,6766.000,0.300,1977.000,0.500,1695.000,1.000,666.000,5.000,0
"03/01/08","06:08:23",61937.000,"cc",28283.719,1,0.100,50835.000,0.200,6766.000,0.300,1944.000,0.500,1726.000,1.000,666.000,5.000,0
"03/01/08","06:08:29",58898.000,"cc",28270.291,1,0.100,48899.000,0.200,6295.000,0.300,1685.000,0.500,1447.000,1.000,572.000,5.000,0
"03/01/08","06:08:35",58581.000,"cc",28312.656,1,0.100,47843.000,0.200,6571.000,0.300,1968.000,0.500,1576.000,1.000,623.000,5.000,0
"03/01/08","06:08:41",60793.000,"cc",28291.531,1,0.100,50744.000,0.200,6468.000,0.300,1719.000,0.500,1335.000,1.000,527.000,5.000,0
"03/01/08","06:08:47",66627.000,"cc",28346.199,1,0.100,55768.000,0.200,7103.000,0.300,1849.000,0.500,1345.000,1.000,562.000,5.000,0
"03/01/08","06:08:53",47833.000,"cc",28277.129,1,0.100,39963.000,0.200,4833.000,0.300,1405.000,0.500,1184.000,1.000,448.000,5.000,0
"03/01/08","06:08:59",38717.000,"cc",28309.984,1,0.100,32279.000,0.200,3760.000,0.300,1205.000,0.500,1047.000,1.000,426.000,5.000,0
"03/01/08","06:09:05",49556.000,"cc",28343.131,1,0.100,40897.000,0.200,5239.000,0.300,1552.000,0.500,1357.000,1.000,511.000,5.000,0
"03/01/08","06:09:11",25927.000,"cc",28255.359,1,0.100,20292.000,0.200,2672.000,0.300,1282.000,0.500,1158.000,1.000,523.000,5.000,0
"03/01/08","06:09:17",28839.000,"cc",28364.633,1,0.100,21993.000,0.200,3091.000,0.300,1642.000,0.500,1497.000,1.000,616.000,5.000,0
"03/01/08","06:09:23",31054.000,"cc",28344.051,1,0.100,24721.000,0.200,3165.000,0.300,1415.000,0.500,1256.000,1.000,497.000,5.000,0
"03/01/08","06:09:29",34156.000,"cc",28386.400,1,0.100,26696.000,0.200,3616.000,0.300,1663.000,0.500,1542.000,1.000,639.000,5.000,0
"03/01/08","06:09:35",28600.000,"cc",28277.740,1,0.100,20577.000,0.200,3313.000,0.300,1991.000,0.500,1946.000,1.000,773.000,5.000,0
"03/01/08","06:09:41",29353.000,"cc",28256.998,1,0.100,21282.000,0.200,3474.000,0.300,2068.000,0.500,1801.000,1.000,728.000,5.000,0
"03/01/08","06:09:47",38706.000,"cc",28338.648,1,0.100,30008.000,0.200,4334.000,0.300,1969.000,0.500,1707.000,1.000,688.000,5.000,0
"03/01/08","06:09:53",29524.000,"cc",28377.293,1,0.100,23426.000,0.200,3164.000,0.300,1282.000,0.500,1196.000,1.000,456.000,5.000,0
"03/01/08","06:09:59",36517.000,"cc",28300.443,1,0.100,26873.000,0.200,4348.000,0.300,2272.000,0.500,2130.000,1.000,894.000,5.000,0
"03/01/08","06:10:05",29724.000,"cc",28287.984,1,0.100,21875.000,0.200,3541.000,0.300,1864.000,0.500,1720.000,1.000,724.000,5.000,0
"03/01/08","06:10:11",25800.000,"cc",28333.135,1,0.100,19523.000,0.200,2866.000,0.300,1508.000,0.500,1340.000,1.000,563.000,5.000,0
"03/01/08","06:10:17",20878.000,"cc",28274.326,1,0.100,17267.000,0.200,1806.000,0.300,824.000,0.500,706.000,1.000,275.000,5.000,0
"03/01/08","06:10:23",26485.000,"cc",28305.145,1,0.100,21624.000,0.200,2565.000,0.300,1041.000,0.500,910.000,1.000,345.000,5.000,0
"03/01/08","06:10:29",27413.000,"cc",28328.272,1,0.100,21292.000,0.200,2896.000,0.300,1416.000,0.500,1299.000,1.000,510.000,5.000,0
"03/01/08","06:10:35",33643.000,"cc",28306.246,1,0.100,25351.000,0.200,3911.000,0.300,1910.000,0.500,1749.000,1.000,722.000,5.000,0
"03/01/08","06:10:41",35164.000,"cc",28372.535,1,0.100,27973.000,0.200,3790.000,0.300,1578.000,0.500,1295.000,1.000,528.000,5.000,0
"03/01/08","06:10:47",48171.000,"cc",28263.387,1,0.100,39282.000,0.200,5447.000,0.300,1589.000,0.500,1328.000,1.000,525.000,5.000,0
"03/01/08","06:10:53",46719.000,"cc",28220.957,1,0.100,38179.000,0.200,5249.000,0.300,1531.000,0.500,1261.000,1.000,498.000,5.000,1.000
"03/01/08","06:10:59",39705.000,"cc",28351.266,1,0.100,32820.000,0.200,4141.000,0.300,1274.000,0.500,1081.000,1.000,389.000,5.000,0
"03/01/08","06:11:05",34585.000,"cc",28274.463,1,0.100,27614.000,0.200,3767.000,0.300,1440.000,0.500,1282.000,1.000,482.000,5.000,0
"03/01/08","06:11:11",36882.000,"cc",28311.205,1,0.100,29229.000,0.200,4038.000,0.300,1565.000,0.500,1465.000,1.000,585.000,5.000,0
"03/01/08","06:11:17",35699.000,"cc",28336.746,1,0.100,27918.000,0.200,3963.000,0.300,1684.000,0.500,1542.000,1.000,592.000,5.000,0
"03/01/08","06:11:23",37486.000,"cc",28303.113,1,0.100,30429.000,0.200,3903.000,0.300,1410.000,0.500,1251.000,1.000,493.000,5.000,0
"03/01/08","06:11:29",43315.000,"cc",28273.406,1,0.100,36389.000,0.200,4536.000,0.300,1109.000,0.500,938.000,1.000,343.000,5.000,0
"03/01/08","06:11:35",45421.000,"cc",28293.141,1,0.100,37973.000,0.200,4747.000,0.300,1270.000,0.500,1034.000,1.000,397.000,5.000,0
"03/01/08","06:11:41",60605.000,"cc",28377.393,1,0.100,51119.000,0.200,6813.000,0.300,1352.000,0.500,980.000,1.000,341.000,5.000,0
"03/01/08","06:11:47",47444.000,"cc",28348.688,1,0.100,40545.000,0.200,5057.000,0.300,918.000,0.500,691.000,1.000,233.000,5.000,0
"03/01/08","06:11:53",91226.000,"cc",28346.883,1,0.100,78344.000,0.200,10624.000,0.300,1239.000,0.500,745.000,1.000,274.000,5.000,0
"03/01/08","06:11:59",103580.000,"cc",28312.709,1,0.100,88851.000,0.200,12232.000,0.300,1418.000,0.500,783.000,1.000,296.000,5.000,0
"03/01/08","06:12:05",61674.000,"cc",28295.531,1,0.100,53607.000,0.200,6534.000,0.300,795.000,0.500,524.000,1.000,214.000,5.000,0
"03/01/08","06:12:11",59651.000,"cc",28310.973,1,0.100,51822.000,0.200,6002.000,0.300,956.000,0.500,616.000,1.000,255.000,5.000,0
"03/01/08","06:12:17",42800.000,"cc",28336.967,1,0.100,36180.000,0.200,4288.000,0.300,1066.000,0.500,895.000,1.000,371.000,5.000,0
"03/01/08","06:12:23",65413.000,"cc",28285.043,1,0.100,54069.000,0.200,7490.000,0.300,1829.000,0.500,1450.000,1.000,575.000,5.000,0
"03/01/08","06:12:29",40892.000,"cc",28285.633,1,0.100,33063.000,0.200,4385.000,0.300,1531.000,0.500,1369.000,1.000,544.000,5.000,0
"03/01/08","06:12:35",46829.000,"cc",28307.164,1,0.100,37738.000,0.200,5185.000,0.300,1756.000,0.500,1550.000,1.000,600.000,5.000,0
"03/01/08","06:12:41",64479.000,"cc",28382.662,1,0.100,54003.000,0.200,7250.000,0.300,1540.000,0.500,1199.000,1.000,487.000,5.000,0
"03/01/08","06:12:47",63269.000,"cc",28284.801,1,0.100,53758.000,0.200,7127.000,0.300,1214.000,0.500,826.000,1.000,344.000,5.000,0
"03/01/08","06:12:53",66723.000,"cc",28319.266,1,0.100,56659.000,0.200,7273.000,0.300,1359.000,0.500,1041.000,1.000,391.000,5.000,0
"03/01/08","06:12:59",48157.000,"cc",28361.559,1,0.100,39235.000,0.200,5310.000,0.300,1662.000,0.500,1395.000,1.000,555.000,5.000,0
"03/01/08","06:13:05",58409.000,"cc",28299.623,1,0.100,49251.000,0.200,6241.000,0.300,1405.000,0.500,1094.000,1.000,418.000,5.000,0
"03/01/08","06:13:11",55322.000,"cc",28359.561,1,0.100,46554.000,0.200,5946.000,0.300,1359.000,0.500,1074.000,1.000,389.000,5.000,0
"03/01/08","06:13:17",48077.000,"cc",28266.736,1,0.100,40789.000,0.200,5103.000,0.300,1082.000,0.500,783.000,1.000,320.000,5.000,0
"03/01/08","06:13:23",34643.000,"cc",28287.684,1,0.100,29452.000,0.200,3386.000,0.300,827.000,0.500,704.000,1.000,274.000,5.000,0
"03/01/08","06:13:29",54051.000,"cc",28300.596,1,0.100,45115.000,0.200,6200.000,0.300,1352.000,0.500,1019.000,1.000,365.000,5.000,0
"03/01/08","06:13:35",34145.000,"cc",28351.041,1,0.100,27263.000,0.200,3829.000,0.300,1393.000,0.500,1213.000,1.000,447.000,5.000,0
"03/01/08","06:13:41",36002.000,"cc",28288.652,1,0.100,30047.000,0.200,3660.000,0.300,1048.000,0.500,921.000,1.000,326.000,5.000,0
"03/01/08","06:13:47",43860.000,"cc",28383.764,1,0.100,35576.000,0.200,4884.000,0.300,1576.000,0.500,1300.000,1.000,524.000,5.000,0
"03/01/08","06:13:53",30972.000,"cc",28294.775,1,0.100,23537.000,0.200,3462.000,0.300,1760.000,0.500,1616.000,1.000,597.000,5.000,0
"03/01/08","06:13:59",59644.000,"cc",28345.844,1,0.100,49089.000,0.200,6932.000,0.300,1750.000,0.500,1327.000,1.000,546.000,5.000,0
"03/01/08","06:14:05",54622.000,"cc",28335.885,1,0.100,42646.000,0.200,6620.000,0.300,2414.000,0.500,2067.000,1.000,875.000,5.000,0
"03/01/08","06:14:11",58246.000,"cc",28295.621,1,0.100,47876.000,0.200,6666.000,0.300,1731.000,0.500,1399.000,1.000,574.000,5.000,0
"03/01/08","06:14:17",58052.000,"cc",28287.104,1,0.100,48770.000,0.200,6419.000,0.300,1380.000,0.500,1022.000,1.000,461.000,5.000,0
"03/01/08","06:14:23",89971.000,"cc",28308.731,1,0.100,75227.000,0.200,10889.000,0.300,1902.000,0.500,1420.000,1.000,533.000,5.000,0
"03/01/08","06:14:29",65938.000,"cc",28308.602,1,0.100,55300.000,0.200,7558.000,0.300,1441.000,0.500,1140.000,1.000,499.000,5.000,0
"03/01/08","06:14:35",66213.000,"cc",28323.867,1,0.100,56359.000,0.200,7544.000,0.300,1182.000,0.500,802.000,1.000,326.000,5.000,0
"03/01/08","06:14:41",46935.000,"cc",28302.305,1,0.100,37675.000,0.200,5459.000,0.300,1846.000,0.500,1445.000,1.000,510.000,5.000,0
"03/01/08","06:14:47",49626.000,"cc",28302.100,1,0.100,41431.000,0.200,5452.000,0.300,1320.000,0.500,1027.000,1.000,396.000,5.000,0
"03/01/08","06:14:53",52602.000,"cc",28331.387,1,0.100,43797.000,0.200,5837.000,0.300,1421.000,0.500,1109.000,1.000,438.000,5.000,0
"03/01/08","06:14:59",68469.000,"cc",28334.217,1,0.100,57703.000,0.200,7972.000,0.300,1344.000,0.500,1036.000,1.000,414.000,5.000,0
"03/01/08","06:15:05",115120.000,"cc",28278.807,1,0.100,98730.000,0.200,13762.000,0.300,1421.000,0.500,854.000,1.000,353.000,5.000,0
"03/01/08","06:15:11",107657.000,"cc",28309.166,1,0.100,91048.000,0.200,12994.000,0.300,1815.000,0.500,1280.000,1.000,520.000,5.000,0
"03/01/08","06:15:17",36760.000,"cc",28295.512,1,0.100,30047.000,0.200,3946.000,0.300,1208.000,0.500,1133.000,1.000,426.000,5.000,0
"03/01/08","06:15:23",37627.000,"cc",28325.240,1,0.100,30061.000,0.200,4171.000,0.300,1487.000,0.500,1381.000,1.000,527.000,5.000,0
"03/01/08","06:15:29",60293.000,"cc",28335.008,1,0.100,49479.000,0.200,6963.000,0.300,1857.000,0.500,1412.000,1.000,582.000,5.000,0
"03/01/08","06:15:35",60963.000,"cc",28290.592,1,0.100,49412.000,0.200,7281.000,0.300,1961.000,0.500,1654.000,1.000,655.000,5.000,0
"03/01/08","06:15:41",34407.000,"cc",28342.504,1,0.100,27973.000,0.200,3650.000,0.300,1239.000,0.500,1104.000,1.000,441.000,5.000,0
"03/01/08","06:15:47",41409.000,"cc",28324.967,1,0.100,33740.000,0.200,4600.000,0.300,1376.000,0.500,1195.000,1.000,498.000,5.000,0
"03/01/08","06:15:53",38140.000,"cc",28268.602,1,0.100,25685.000,0.200,5156.000,0.300,3180.000,0.500,2909.000,1.000,1210.000,5.000,0
"03/01/08","06:15:59",50314.000,"cc",28371.529,1,0.100,35160.000,0.200,6912.000,0.300,3612.000,0.500,3313.000,1.000,1317.000,5.000,0
"03/01/08","06:16:05",85897.000,"cc",28386.934,1,0.100,70817.000,0.200,10592.000,0.300,2183.000,0.500,1665.000,1.000,640.000,5.000,0
"03/01/08","06:16:11",62819.000,"cc",28370.717,1,0.100,52826.000,0.200,7247.000,0.300,1344.000,0.500,1032.000,1.000,370.000,5.000,0
"03/01/08","06:16:17",54144.000,"cc",28290.203,1,0.100,45613.000,0.200,6006.000,0.300,1198.000,0.500,968.000,1.000,359.000,5.000,0
"03/01/08","06:16:23",33148.000,"cc",28270.674,1,0.100,28841.000,0.200,3043.000,0.300,612.000,0.500,474.000,1.000,178.000,5.000,0
"03/01/08","06:16:29",52374.000,"cc",28286.902,1,0.100,45430.000,0.200,5302.000,0.300,872.000,0.500,557.000,1.000,213.000,5.000,0
"03/01/08","06:16:35",38632.000,"cc",28266.219,1,0.100,34143.000,0.200,3224.000,0.300,622.000,0.500,468.000,1.000,175.000,5.000,0
"03/01/08","06:16:41",53254.000,"cc",28323.053,1,0.100,46593.000,0.200,4991.000,0.300,817.000,0.500,600.000,1.000,253.000,5.000,0
"03/01/08","06:16:47",41072.000,"cc",28399.412,1,0.100,35820.000,0.200,3541.000,0.300,840.000,0.500,638.000,1.000,233.000,5.000,0
"03/01/08","06:16:53",54958.000,"cc",28316.168,1,0.100,44463.000,0.200,5960.000,0.300,2018.000,0.500,1803.000,1.000,714.000,5.000,0
"03/01/08","06:16:59",57628.000,"cc",28343.770,1,0.100,47613.000,0.200,5084.000,0.300,2207.000,0.500,1951.000,1.000,773.000,5.000,0